Probability
29 31 29 25 21 19 19 21 22 22 19 15 11 10 9 10 12 12 10 9 8 6 4 4 6 7 10 12 12 11 11 12 11 8 7 6 5 4 3 2 1 2 2
35 37 36 31 26 23 24 25 26 25 23 19 16 13 12 13 13 11 8 6 5 4 4 4 6 8 10 11 12 11 11 13 12 9 7 7 6 5 5 3 1 1 1
40 41 42 38 33 31 31 32 32 32 29 26 22 19 17 16 13 8 5 4 4 4 4 5 6 7 9 10 11 12 12 12 13 11 9 7 7 6 6 3 1 0 0
41 41 41 40 37 35 36 36 37 37 36 32 28 24 20 16 11 6 5 5 6 6 6 5 6 6 7 8 9 11 12 11 11 11 9 7 6 5 4 2 0 0 0
47 44 42 42 41 40 39 40 41 41 40 37 34 29 21 14 8 6 7 8 8 8 7 5 5 4 5 5 5 7 10 10 10 9 8 6 5 4 3 1 0 0 0
57 54 51 50 50 49 46 45 46 46 44 41 38 33 23 14 8 7 8 11 12 12 9 7 5 4 4 4 3 3 5 7 7 7 7 6 5 4 3 2 1 1 0
61 59 57 57 58 57 54 51 52 52 48 43 40 35 27 17 9 5 7 13 16 16 14 11 7 5 6 7 6 4 4 4 5 6 7 7 6 5 4 4 3 1 0
60 58 57 57 58 58 57 56 55 55 52 47 41 35 28 19 10 3 5 13 19 19 17 14 11 8 9 10 10 10 9 7 4 4 5 6 5 4 4 4 3 1 0
58 56 55 56 56 55 55 55 55 55 52 49 43 34 28 20 10 3 5 13 20 19 17 14 11 10 9 10 11 13 13 10 6 3 2 2 2 1 1 2 1 0 0
56 54 53 55 55 53 51 51 51 51 48 45 41 34 28 21 10 2 4 14 20 19 17 16 12 9 7 6 9 12 13 11 8 3 1 0 1 1 1 0 0 0 0
54 52 52 52 50 49 48 47 47 46 43 40 37 33 28 20 9 2 4 11 17 20 20 19 14 7 3 3 5 9 9 9 8 5 2 1 1 2 2 1 1 0 0
51 52 52 50 47 45 44 43 43 42 38 35 34 32 28 20 12 5 2 5 10 18 22 19 12 5 1 0 2 3 4 5 7 6 4 2 1 2 3 3 2 1 0
47 49 50 50 47 44 41 40 42 41 38 36 36 35 32 27 20 10 4 1 4 11 17 14 7 2 0 0 0 0 1 4 6 5 4 3 2 2 2 3 2 1 0
43 43 44 46 46 43 39 38 38 39 38 38 38 37 36 33 26 17 9 5 4 8 11 8 3 0 0 0 0 1 2 3 5 5 5 4 3 2 1 2 1 0 0
40 38 38 41 41 38 34 31 30 29 28 29 30 31 30 27 21 15 11 8 6 6 7 6 2 0 0 0 1 2 3 4 5 6 6 6 5 3 1 0 0 0 0
36 34 33 35 35 32 28 24 20 15 13 13 15 17 16 13 9 6 5 4 3 3 4 5 4 2 1 0 2 3 3 4 5 6 6 6 5 3 1 0 0 0 0
30 28 27 29 29 27 25 22 17 10 6 4 4 4 4 3 1 0 0 0 0 0 2 5 5 4 2 1 2 2 3 3 4 4 4 4 4 3 1 0 0 0 0
24 23 23 24 25 24 23 21 17 11 7 5 2 0 0 0 0 0 0 0 0 0 1 4 6 6 5 3 2 2 3 4 4 3 3 3 3 2 1 0 0 0 0
20 20 20 21 22 22 21 19 14 10 8 7 4 1 0 0 0 0 0 1 1 0 0 2 4 6 6 5 4 3 3 5 5 4 3 3 3 3 1 0 0 0 0
16 15 15 17 18 18 17 13 10 7 6 6 5 3 1 1 2 1 1 1 1 0 0 1 3 5 6 6 5 4 4 4 6 5 4 4 3 3 2 1 0 0 0
11 11 12 12 12 12 10 8 6 5 4 4 4 3 1 1 3 3 2 1 1 1 2 2 2 3 5 5 5 5 4 4 6 6 6 5 4 3 3 2 1 0 0
9 9 9 9 8 6 5 5 5 5 4 4 4 2 1 1 2 3 4 3 3 3 3 3 3 2 2 2 3 4 3 3 4 5 5 4 4 3 3 2 1 0 0
6 6 6 6 6 4 3 4 5 4 3 3 3 2 1 1 2 3 4 5 4 3 3 3 2 1 0 0 1 2 1 1 1 2 2 2 2 2 1 1 0 0 0
4 4 4 5 5 4 3 3 4 3 3 3 3 2 1 2 3 3 4 4 3 2 2 1 1 1 0 0 0 0 0 0 0 0 0 0 1 1 0 0 0 0 0
4 3 3 4 4 3 3 3 3 3 3 3 4 3 2 2 2 2 3 3 1 1 1 0 0 0 0 0 0 0 0 0 0 0 0 0 0 0 0 0 0 0 0
5 4 3 3 3 3 3 3 3 3 3 4 4 3 2 1 1 1 2 1 0 0 0 0 0 0 0 0 0 0 0 0 0 0 0 0 0 0 0 0 0 0 0
Wind_Speed
9 8 7 7 8 7 7 7 6 6 6 6 6 6 5 5 4 4 4 4 4 4 4 4 4 3 3 3 3 3 3 3 3 1 0 1 1 1 2 1 2 2 4
8 8 8 7 7 7 7 7 6 6 6 6 6 6 5 5 5 5 5 4 4 4 4 4 4 3 3 3 2 3 2 2 3 2 0 1 1 1 2 1 1 1 2
8 8 8 8 8 7 7 6 6 6 6 6 6 5 5 5 5 5 4 4 4 4 3 4 3 3 3 2 3 2 2 2 2 2 1 1 1 2 2 1 1 1 1
7 8 8 8 7 7 7 7 6 6 6 6 6 6 5 5 5 5 5 5 4 3 3 3 3 3 3 3 3 3 3 3 3 3 2 2 2 2 2 2 2 2 1
6 7 7 7 6 6 6 6 6 6 7 7 6 6 6 6 5 6 6 6 5 4 4 4 3 1 2 3 3 2 3 3 3 3 2 2 2 3 3 2 2 2 2
5 6 6 6 6 6 6 6 6 6 6 6 6 6 6 5 4 4 5 5 5 5 4 4 3 4 3 3 1 2 2 3 3 3 3 3 3 3 2 3 3 3 2
4 4 5 5 6 6 6 6 6 6 5 6 6 6 5 3 4 5 6 5 5 4 4 4 4 3 4 3 4 5 3 1 1 3 3 2 2 2 3 4 3 2 1
4 4 5 5 5 6 6 6 5 5 4 5 5 5 5 4 5 5 6 7 5 5 5 5 4 3 3 2 3 4 3 3 2 3 1 1 1 1 3 3 2 3 2
4 4 4 4 4 4 5 5 4 4 4 4 4 4 5 4 5 5 6 6 5 5 5 5 5 4 3 2 4 3 3 3 4 3 4 3 4 2 1 2 3 4 3
3 3 3 3 3 4 4 3 3 3 4 4 3 4 4 4 6 7 7 5 5 5 5 5 4 3 5 4 5 3 3 2 3 4 4 4 4 5 4 3 3 4 3
1 2 2 3 3 3 3 3 3 3 3 3 3 4 4 4 6 8 7 5 4 4 3 4 4 7 6 5 4 2 1 1 3 3 3 3 3 3 4 3 3 3 3
1 1 2 2 2 2 3 3 4 4 4 4 4 4 3 4 4 6 8 7 5 4 3 2 4 8 7 6 3 2 3 3 3 3 3 3 3 2 2 3 3 3 3
2 2 2 2 2 2 3 4 4 4 4 4 4 4 3 3 4 6 9 8 6 4 1 3 5 7 7 5 5 5 5 4 3 3 3 2 2 1 2 3 4 4 4
2 2 2 3 2 2 2 3 3 3 4 4 4 3 3 3 3 3 4 5 6 5 3 5 7 6 4 3 5 5 4 3 3 3 2 2 2 2 2 2 3 3 4
2 2 2 2 2 2 1 0 1 1 2 3 2 2 2 2 0 0 2 3 3 3 3 3 3 4 4 4 3 3 3 3 3 2 2 2 2 3 3 3 3 4 4
2 2 2 2 2 2 2 2 5 3 4 3 3 3 1 2 1 2 2 3 3 4 4 3 3 3 3 3 3 3 2 2 2 2 2 2 2 2 2 3 3 4 4
2 2 2 2 2 2 2 2 2 3 3 3 2 2 2 2 2 3 4 4 5 6 4 3 3 3 3 2 2 2 2 2 2 2 2 2 2 2 2 2 3 3 3
2 2 3 2 2 2 2 2 2 2 2 2 3 3 3 3 3 3 4 4 3 2 2 1 1 1 1 2 1 1 1 1 1 1 2 2 2 2 2 2 2 3 3
3 2 2 1 1 2 2 2 2 2 2 2 2 3 4 5 5 3 3 2 1 1 1 1 1 0 0 1 1 1 1 1 0 1 1 2 2 2 2 2 2 2 5
1 0 1 2 2 2 2 2 2 2 2 2 2 2 2 3 2 3 2 1 1 2 1 1 1 1 0 0 0 0 0 0 1 1 1 2 2 2 2 3 3 3 4
1 1 2 2 2 2 2 2 2 2 2 2 2 3 1 1 2 2 2 2 2 2 2 1 1 1 1 1 1 0 0 1 1 1 1 2 2 2 2 3 3 4 4
2 1 1 1 1 1 1 2 2 2 2 3 3 4 2 1 2 2 2 3 3 2 2 2 2 2 1 1 1 1 1 1 1 2 2 2 2 3 3 3 4 4 4
1 1 1 1 1 2 2 2 2 2 2 2 2 3 3 2 2 2 2 2 2 2 2 2 2 2 2 2 2 2 2 2 2 3 3 3 3 3 3 4 4 4 4
1 1 1 1 2 2 2 2 2 2 2 2 2 2 2 2 2 3 3 3 3 3 3 2 3 4 4 3 3 3 4 5 5 3 4 4 4 4 4 4 4 5 4
1 1 2 2 2 2 2 3 2 2 2 3 3 3 3 3 3 3 3 3 4 4 4 3 3 4 5 5 5 6 6 5 5 6 5 4 4 4 4 4 4 4 4
1 2 2 2 2 2 3 3 3 3 3 3 3 3 3 3 3 3 3 3 3 4 4 3 5 5 5 5 7 7 4 4 5 7 6 4 3 3 4 4 5 5 5
Wind_Direction
192 193 199 198 199 203 208 212 213 215 211 216 218 220 224 224 223 229 246 244 249 256 261 255 256 267 268 261 256 252 246 246 251 260 94 113 159 210 133 143 159 173 128
187 188 193 196 198 202 203 207 207 210 212 214 219 219 219 219 219 224 235 238 243 248 254 257 258 246 241 260 263 257 255 251 247 241 216 149 178 164 140 172 162 128 102
184 188 188 192 197 203 202 200 201 203 208 210 209 211 214 216 223 228 229 231 235 241 247 250 257 256 250 248 252 253 248 235 223 218 206 150 170 157 161 179 159 136 138
187 190 189 193 196 199 199 197 198 199 202 206 209 209 209 212 221 229 229 226 225 226 234 243 249 249 254 258 247 243 246 239 216 218 199 185 172 160 187 196 188 180 188
189 191 191 195 196 198 197 197 196 200 203 202 206 205 209 209 215 223 229 223 221 219 218 225 226 228 313 289 289 263 236 238 226 219 205 198 190 178 198 196 205 188 185
190 191 189 193 194 196 196 197 196 200 207 203 209 210 211 217 173 205 239 225 218 220 222 225 207 194 197 210 268 316 304 256 253 239 224 215 208 204 198 207 200 204 201
187 189 186 194 197 199 199 194 196 199 200 200 209 213 215 203 165 198 227 234 220 224 223 220 225 182 196 204 181 189 190 161 287 272 261 248 211 197 204 208 200 221 248
182 189 190 195 199 197 199 198 197 196 196 202 207 213 218 192 174 200 216 224 220 216 221 218 220 199 200 217 206 190 187 171 189 226 250 242 227 170 203 218 187 188 198
178 188 192 190 195 194 196 202 198 195 197 201 200 212 219 195 175 193 213 221 216 214 215 211 212 201 151 192 222 202 187 164 124 87 55 65 77 102 186 196 186 207 213
190 190 182 176 184 191 190 200 202 200 199 196 200 214 218 211 180 190 208 225 214 212 204 199 196 207 152 183 216 210 207 191 160 148 150 158 162 158 185 225 222 232 234
188 177 170 178 193 197 184 184 198 217 210 203 209 216 212 210 180 187 201 229 226 218 209 203 170 156 161 180 222 230 187 206 190 183 174 173 169 167 182 201 234 255 258
177 170 169 181 204 187 183 193 197 208 211 207 216 222 207 195 190 185 197 219 254 229 223 206 142 146 160 173 197 153 151 215 213 200 193 187 185 179 178 192 208 242 264
187 189 192 192 195 207 195 205 207 204 215 217 219 220 214 201 182 180 193 202 220 232 211 99 121 148 160 173 180 175 196 216 219 214 214 202 189 172 180 190 199 217 230
200 197 195 193 196 194 209 213 218 218 221 228 228 231 224 208 204 186 188 184 189 201 186 137 147 162 179 155 160 181 212 223 231 224 220 208 172 177 202 214 217 214 226
218 218 226 221 195 197 184 359 266 31 328 282 270 262 262 251 264 248 216 197 192 177 169 168 171 170 177 178 180 189 202 202 216 228 221 212 209 206 204 213 232 230 234
237 233 238 232 196 195 166 123 58 62 51 30 359 326 358 51 101 139 154 152 147 159 181 184 187 194 194 188 184 185 190 201 217 226 228 227 227 229 227 225 233 244 249
247 248 248 236 212 203 195 190 166 115 102 84 60 37 39 84 107 128 141 149 160 171 191 189 189 193 195 196 197 199 197 193 218 229 235 240 244 245 248 245 249 252 255
234 232 240 226 219 216 210 213 213 196 175 134 103 105 125 128 127 125 135 137 143 180 191 172 182 191 191 195 194 197 206 192 199 239 256 264 266 260 256 256 257 273 271
235 235 240 233 220 212 215 209 197 197 173 140 137 127 142 144 137 132 160 157 122 120 108 101 105 145 164 179 189 210 218 194 218 253 248 253 252 255 259 263 262 254 265
249 170 236 233 222 213 205 205 197 182 162 134 122 108 133 139 125 118 122 97 98 100 104 107 90 71 85 137 171 174 180 187 233 249 255 260 262 260 257 260 263 259 260
252 177 192 212 210 219 205 199 186 161 138 121 101 77 46 161 125 117 117 108 100 98 95 87 80 71 60 45 26 4 240 241 254 267 263 267 274 271 267 263 263 264 268
243 202 186 186 168 182 196 185 165 146 135 124 119 113 115 114 90 95 97 96 93 88 85 84 82 78 68 44 358 319 310 324 333 315 298 280 268 267 267 263 261 267 269
225 187 167 153 140 149 174 157 138 127 116 115 114 111 116 107 102 100 93 85 84 83 80 78 84 82 67 49 34 25 3 359 339 317 294 282 275 269 266 268 270 270 270
184 157 147 151 153 148 137 127 121 114 114 113 113 116 120 121 114 106 99 92 91 89 88 85 78 72 64 52 41 42 34 8 335 312 303 293 287 286 282 276 273 277 278
137 138 137 129 116 111 111 113 113 116 117 117 120 119 116 114 110 105 99 95 92 89 86 79 74 76 72 60 50 45 36 12 351 333 306 296 299 299 298 294 294 292 288
128 132 129 120 119 120 121 122 118 115 117 118 122 120 117 115 109 104 104 101 98 96 91 83 75 70 67 65 58 47 33 12 357 333 311 311 320 326 321 304 303 296 292